Regional Weather Roundup
Issued by NWS

Home | Current Version | Previous Version | Text Only | Print | Product List | Glossary On
Versions: 1 2 3 4 5 6 7 8 9 10 11 12 13 14 15 16 17 18 19 20 21 22 23 24 25 26 27 28 29 30 31 32 33 34 35 36 37 38 39 40 41 42 43 44 45 46 47 48 49 50
000
ASUS43 KTOP 131608
RWRKS

WEATHER ROUNDUP FOR KANSAS
NATIONAL WEATHER SERVICE GOODLAND KS
1000 AM CST WED DEC 13 2017

NOTE:  "FAIR" INDICATES FEW OR NO CLOUDS BELOW 12,000 FEET WITH NO
SIGNIFICANT WEATHER AND/OR OBSTRUCTIONS TO VISIBILITY.

KSZ001>006-013>018-027>032-041>047-131700-
NORTHWEST KANSAS

CITY           SKY/WX    TMP DP  RH WIND       PRES   REMARKS
GOODLAND       SUNNY     48  15  26 NW17G25   30.07S
HAYS           MOSUNNY   53  19  26 NW12      29.98R
HILL CITY      SUNNY     55  18  23 NW18G26   30.00R
RUSSELL        SUNNY     56  21  25 NW20      29.94S
$$

KSZ061>065-074>080-084>089-131700-
SOUTHWEST KANSAS

CITY           SKY/WX    TMP DP  RH WIND       PRES   REMARKS
DODGE CITY     CLOUDY    54  16  22 N15G25    30.03R
ELKHART        SUNNY     55  19  24 N23G33    30.08R
GARDEN CITY    CLOUDY    50  14  23 N16       30.04R
GREAT BEND     CLOUDY    50  19  29 NW15      29.96
LIBERAL        SUNNY     52  13  21 N20G28    30.06R
PRATT          CLOUDY    52  16  23 N18G29    29.97S
$$

KSZ066>073-081>083-090>101-131700-
SOUTHEAST KANSAS

CITY           SKY/WX    TMP DP  RH WIND       PRES   REMARKS
CHANUTE        SUNNY     48  26  42 W8        29.85R
COFFEYVILLE    SUNNY     45  29  53 SW7       29.89R
HUTCHINSON     MOSUNNY   50  22  33 NW14      29.92R
MEDICINE LODGE   N/A     54  20  26 N18G26    29.95R
NEWTON         PTSUNNY   49  21  33 NW16      29.90R
PARSONS        SUNNY     44  29  55 SW8       29.89R
WICHITA INTL   PTSUNNY   56  23  27 NW15      29.91R
WICHITA JABRA  SUNNY     53  22  29 NW17      29.90R
WICHITA MCCONL MOSUNNY   53  19  26 NW15G21   29.90R
WINFIELD       SUNNY     47  28  47 NW12      29.93R
$$

KSZ007>012-019>026-033>040-048>060-102>105-131700-
NORTHEAST KANSAS

CITY           SKY/WX    TMP DP  RH WIND       PRES   REMARKS
CONCORDIA      SUNNY     54  22  28 NW24G32   29.87R
EMPORIA        CLOUDY    50  23  34 NW13G21   29.83S
LAWRENCE       CLOUDY    43  30  60 NW3       29.77S
MANHATTAN      SUNNY     57  23  26 NW12G24   29.84R
MARYSVILLE     SUNNY     54  27  35 NW30G44   29.82R
OLATHE IND     CLOUDY    47  25  42 W15       29.77S
OLATHE EXE     CLOUDY    45  25  45 W8G17     29.75S
SALINA         CLOUDY    56  23  27 NW21G28   29.91R
TOPEKA BILLARD CLOUDY    48  26  42 W10       29.79R
TOPEKA FORBES  MOSUNNY   54  24  31 NW22G29   29.79R
$$



USA.gov is the U.S. government's official web portal to all federal, state and local government web resources and services.